Year,Month,Day,Hour,Minute,Value (Times are PST for windgust in km/hr)
2014,04,13,00,24,1.60
2014,04,13,00,27,3.20
2014,04,13,00,28,3.20
2014,04,13,00,32,1.60
2014,04,13,01,01,1.60
2014,04,13,01,47,1.60
2014,04,13,02,42,1.60
2014,04,13,02,43,1.60
2014,04,13,02,52,1.60
2014,04,13,02,55,1.60
2014,04,13,02,56,3.20
2014,04,13,02,57,3.20
2014,04,13,02,58,3.20
2014,04,13,02,59,1.60
2014,04,13,03,00,1.60
2014,04,13,03,01,4.80
2014,04,13,03,02,3.20
2014,04,13,03,03,3.20
2014,04,13,03,04,3.20
2014,04,13,03,06,4.80
2014,04,13,03,07,4.80
2014,04,13,03,08,3.20
2014,04,13,03,09,6.40
2014,04,13,03,10,4.80
2014,04,13,03,11,3.20
2014,04,13,03,12,3.20
2014,04,13,03,13,1.60
2014,04,13,03,14,3.20
2014,04,13,03,15,3.20
2014,04,13,03,16,3.20
2014,04,13,03,17,3.20
2014,04,13,03,18,3.20
2014,04,13,03,21,6.40
2014,04,13,03,22,6.40
2014,04,13,03,23,3.20
2014,04,13,03,24,3.20
2014,04,13,03,25,3.20
2014,04,13,03,26,4.80
2014,04,13,03,27,4.80
2014,04,13,03,28,3.20
2014,04,13,03,29,1.60
2014,04,13,03,30,1.60
2014,04,13,03,31,3.20
2014,04,13,03,32,3.20
2014,04,13,03,33,1.60
2014,04,13,03,34,1.60
2014,04,13,03,35,1.60
2014,04,13,03,36,3.20
2014,04,13,03,37,1.60
2014,04,13,03,44,1.60
2014,04,13,03,45,1.60
2014,04,13,03,46,3.20
2014,04,13,03,47,1.60
2014,04,13,03,48,3.20
2014,04,13,03,49,3.20
2014,04,13,03,50,1.60
2014,04,13,03,51,1.60
2014,04,13,03,52,1.60
2014,04,13,03,53,1.60
2014,04,13,03,54,1.60
2014,04,13,03,55,1.60
2014,04,13,03,56,1.60
2014,04,13,03,57,1.60
2014,04,13,03,58,1.60
2014,04,13,03,59,1.60
2014,04,13,04,00,1.60
2014,04,13,04,01,1.60
2014,04,13,04,02,1.60
2014,04,13,04,03,1.60
2014,04,13,04,09,1.60
2014,04,13,04,11,1.60
2014,04,13,04,12,1.60
2014,04,13,04,17,1.60
2014,04,13,04,18,1.60
2014,04,13,04,19,1.60
2014,04,13,04,20,1.60
2014,04,13,04,21,1.60
2014,04,13,04,22,1.60
2014,04,13,04,23,1.60
2014,04,13,04,27,1.60
2014,04,13,04,29,1.60
2014,04,13,04,31,1.60
2014,04,13,04,35,1.60
2014,04,13,04,36,1.60
2014,04,13,04,37,1.60
2014,04,13,04,41,1.60
2014,04,13,04,42,3.20
2014,04,13,04,43,1.60
2014,04,13,04,45,1.60
2014,04,13,04,47,1.60
2014,04,13,04,48,1.60
2014,04,13,04,52,1.60
2014,04,13,04,53,3.20
2014,04,13,04,54,3.20
2014,04,13,04,55,4.80
2014,04,13,04,56,3.20
2014,04,13,04,57,1.60
2014,04,13,04,58,3.20
2014,04,13,05,00,1.60
2014,04,13,05,01,1.60
2014,04,13,05,02,3.20
2014,04,13,05,04,1.60
2014,04,13,05,06,3.20
2014,04,13,05,07,3.20
2014,04,13,05,08,1.60
2014,04,13,05,09,1.60
2014,04,13,05,10,1.60
2014,04,13,05,11,1.60
2014,04,13,05,12,3.20
2014,04,13,05,13,3.20
2014,04,13,05,15,1.60
2014,04,13,05,16,1.60
2014,04,13,05,17,1.60
2014,04,13,05,18,1.60
2014,04,13,05,19,3.20
2014,04,13,05,20,1.60
2014,04,13,05,21,1.60
2014,04,13,05,24,1.60
2014,04,13,05,25,3.20
2014,04,13,05,26,1.60
2014,04,13,05,28,1.60
2014,04,13,05,30,1.60
2014,04,13,05,31,3.20
2014,04,13,05,34,1.60
2014,04,13,05,35,1.60
2014,04,13,05,39,1.60
2014,04,13,05,40,1.60
2014,04,13,05,41,1.60
2014,04,13,05,42,1.60
2014,04,13,05,43,1.60
2014,04,13,05,44,3.20
2014,04,13,05,46,1.60
2014,04,13,05,48,1.60
2014,04,13,05,49,3.20
2014,04,13,05,50,1.60
2014,04,13,05,52,1.60
2014,04,13,05,53,1.60
2014,04,13,05,54,1.60
2014,04,13,05,55,1.60
2014,04,13,05,56,3.20
2014,04,13,05,57,1.60
2014,04,13,05,58,4.80
2014,04,13,05,59,3.20
2014,04,13,06,00,3.20
2014,04,13,06,01,3.20
2014,04,13,06,02,1.60
2014,04,13,06,03,3.20
2014,04,13,06,05,1.60
2014,04,13,06,06,3.20
2014,04,13,06,07,1.60
2014,04,13,06,08,3.20
2014,04,13,06,09,1.60
2014,04,13,06,10,3.20
2014,04,13,06,11,3.20
2014,04,13,06,12,1.60
2014,04,13,06,13,3.20
2014,04,13,06,14,3.20
2014,04,13,06,15,3.20
2014,04,13,06,16,3.20
2014,04,13,06,18,1.60
2014,04,13,06,19,3.20
2014,04,13,06,20,3.20
2014,04,13,06,21,4.80
2014,04,13,06,22,1.60
2014,04,13,06,23,1.60
2014,04,13,06,27,1.60
2014,04,13,06,28,1.60
2014,04,13,06,29,1.60
2014,04,13,06,30,3.20
2014,04,13,06,31,1.60
2014,04,13,06,32,1.60
2014,04,13,06,33,1.60
2014,04,13,06,34,1.60
2014,04,13,06,47,1.60
2014,04,13,06,48,1.60
2014,04,13,06,52,1.60
2014,04,13,06,53,1.60
2014,04,13,07,05,3.20
2014,04,13,07,06,1.60
2014,04,13,07,07,1.60
2014,04,13,07,08,1.60
2014,04,13,07,09,1.60
2014,04,13,07,10,3.20
2014,04,13,07,11,3.20
2014,04,13,07,12,1.60
2014,04,13,07,13,1.60
2014,04,13,07,14,3.20
2014,04,13,07,15,3.20
2014,04,13,07,16,1.60
2014,04,13,07,19,1.60
2014,04,13,07,20,1.60
2014,04,13,07,21,3.20
2014,04,13,07,22,3.20
2014,04,13,07,23,1.60
2014,04,13,07,24,1.60
2014,04,13,07,25,1.60
2014,04,13,07,26,3.20
2014,04,13,07,27,1.60
2014,04,13,07,28,1.60
2014,04,13,07,29,1.60
2014,04,13,07,31,1.60
2014,04,13,07,32,3.20
2014,04,13,07,33,3.20
2014,04,13,07,34,1.60
2014,04,13,07,35,1.60
2014,04,13,07,39,1.60
2014,04,13,07,40,3.20
2014,04,13,07,41,4.80
2014,04,13,07,42,3.20
2014,04,13,07,43,3.20
2014,04,13,07,44,3.20
2014,04,13,07,45,3.20
2014,04,13,07,46,1.60
2014,04,13,07,47,3.20
2014,04,13,07,48,3.20
2014,04,13,07,49,1.60
2014,04,13,07,50,1.60
2014,04,13,07,51,1.60
2014,04,13,08,00,1.60
2014,04,13,08,01,1.60
2014,04,13,08,02,3.20
2014,04,13,08,03,3.20
2014,04,13,08,04,3.20
2014,04,13,08,05,1.60
2014,04,13,08,06,1.60
2014,04,13,08,10,1.60
2014,04,13,08,11,1.60
2014,04,13,08,12,1.60
2014,04,13,08,13,1.60
2014,04,13,08,15,1.60
2014,04,13,08,16,1.60
2014,04,13,08,17,1.60
2014,04,13,08,18,1.60
2014,04,13,08,19,6.40
2014,04,13,08,20,3.20
2014,04,13,08,22,1.60
2014,04,13,08,23,3.20
2014,04,13,08,24,6.40
2014,04,13,08,25,11.30
2014,04,13,08,26,4.80
2014,04,13,08,27,9.60
2014,04,13,08,28,11.30
2014,04,13,08,29,3.20
2014,04,13,08,30,9.60
2014,04,13,08,31,8.10
2014,04,13,08,32,3.20
2014,04,13,08,33,4.80
2014,04,13,08,34,8.10
2014,04,13,08,35,14.50
2014,04,13,08,36,14.50
2014,04,13,08,37,8.10
2014,04,13,08,38,16.10
2014,04,13,08,39,12.90
2014,04,13,08,40,1.60
2014,04,13,08,41,3.20
2014,04,13,08,42,14.50
2014,04,13,08,43,14.50
2014,04,13,08,44,6.40
2014,04,13,08,45,6.40
2014,04,13,08,46,3.20
2014,04,13,08,47,11.30
2014,04,13,08,48,8.10
2014,04,13,08,49,17.70
2014,04,13,08,50,8.10
2014,04,13,08,51,9.60
2014,04,13,08,52,9.60
2014,04,13,08,53,11.30
2014,04,13,08,54,9.60
2014,04,13,08,55,17.70
2014,04,13,08,56,14.50
2014,04,13,08,57,12.90
2014,04,13,08,58,11.30
2014,04,13,08,59,9.60
2014,04,13,09,00,19.30
2014,04,13,09,01,19.30
2014,04,13,09,02,16.10
2014,04,13,09,03,14.50
2014,04,13,09,04,8.10
2014,04,13,09,05,14.50
2014,04,13,09,06,9.60
2014,04,13,09,07,4.80
2014,04,13,09,08,9.60
2014,04,13,09,09,6.40
2014,04,13,09,10,9.60
2014,04,13,09,11,14.50
2014,04,13,09,12,16.10
2014,04,13,09,13,9.60
2014,04,13,09,14,14.50
2014,04,13,09,15,9.60
2014,04,13,09,16,6.40
2014,04,13,09,17,4.80
2014,04,13,09,18,9.60
2014,04,13,09,19,8.10
2014,04,13,09,20,8.10
2014,04,13,09,21,8.10
2014,04,13,09,22,8.10
2014,04,13,09,23,11.30
2014,04,13,09,24,11.30
2014,04,13,09,25,9.60
2014,04,13,09,26,9.60
2014,04,13,09,27,8.10
2014,04,13,09,28,9.60
2014,04,13,09,29,9.60
2014,04,13,09,30,11.30
2014,04,13,09,31,6.40
2014,04,13,09,32,8.10
2014,04,13,09,33,12.90
2014,04,13,09,34,16.10
2014,04,13,09,35,9.60
2014,04,13,09,36,9.60
2014,04,13,09,37,11.30
2014,04,13,09,38,14.50
2014,04,13,09,39,4.80
2014,04,13,09,40,3.20
2014,04,13,09,41,8.10
2014,04,13,09,42,24.20
2014,04,13,09,43,22.50
2014,04,13,09,44,9.60
2014,04,13,09,45,4.80
2014,04,13,09,46,9.60
2014,04,13,09,47,16.10
2014,04,13,09,48,11.30
2014,04,13,09,49,9.60
2014,04,13,09,50,20.90
2014,04,13,09,51,19.30
2014,04,13,09,52,14.50
2014,04,13,09,53,9.60
2014,04,13,09,54,14.50
2014,04,13,09,55,16.10
2014,04,13,09,56,17.70
2014,04,13,09,57,11.30
2014,04,13,09,58,14.50
2014,04,13,09,59,19.30
2014,04,13,10,00,9.60
2014,04,13,10,01,4.80
2014,04,13,10,02,6.40
2014,04,13,10,03,16.10
2014,04,13,10,04,11.30
2014,04,13,10,05,9.60
2014,04,13,10,06,6.40
2014,04,13,10,07,8.10
2014,04,13,10,08,16.10
2014,04,13,10,09,16.10
2014,04,13,10,10,11.30
2014,04,13,10,11,12.90
2014,04,13,10,12,17.70
2014,04,13,10,13,14.50
2014,04,13,10,14,16.10
2014,04,13,10,15,14.50
2014,04,13,10,16,20.90
2014,04,13,10,17,19.30
2014,04,13,10,18,19.30
2014,04,13,10,19,14.50
2014,04,13,10,20,17.70
2014,04,13,10,21,11.30
2014,04,13,10,22,11.30
2014,04,13,10,23,27.40
2014,04,13,10,24,20.90
2014,04,13,10,25,8.10
2014,04,13,10,26,14.50
2014,04,13,10,27,20.90
2014,04,13,10,28,9.60
2014,04,13,10,29,14.50
2014,04,13,10,30,11.30
2014,04,13,10,31,11.30
2014,04,13,10,32,17.70
2014,04,13,10,33,8.10
2014,04,13,10,34,16.10
2014,04,13,10,35,17.70
2014,04,13,10,36,19.30
2014,04,13,10,37,12.90
2014,04,13,10,38,9.60
2014,04,13,10,39,8.10
2014,04,13,10,40,8.10
2014,04,13,10,41,20.90
2014,04,13,10,42,19.30
2014,04,13,10,43,19.30
2014,04,13,10,44,17.70
2014,04,13,10,45,20.90
2014,04,13,10,46,16.10
2014,04,13,10,47,14.50
2014,04,13,10,48,8.10
2014,04,13,10,49,17.70
2014,04,13,10,50,8.10
2014,04,13,10,51,17.70
2014,04,13,10,52,14.50
2014,04,13,10,53,16.10
2014,04,13,10,54,14.50
2014,04,13,10,55,11.30
2014,04,13,10,56,9.60
2014,04,13,10,57,16.10
2014,04,13,10,58,17.70
2014,04,13,10,59,6.40
2014,04,13,11,00,9.60
2014,04,13,11,01,9.60
2014,04,13,11,02,9.60
2014,04,13,11,03,11.30
2014,04,13,11,04,8.10
2014,04,13,11,05,11.30
2014,04,13,11,06,17.70
2014,04,13,11,07,16.10
2014,04,13,11,08,19.30
2014,04,13,11,09,11.30
2014,04,13,11,10,14.50
2014,04,13,11,11,16.10
2014,04,13,11,12,14.50
2014,04,13,11,13,16.10
2014,04,13,11,14,9.60
2014,04,13,11,15,16.10
2014,04,13,11,16,11.30
2014,04,13,11,17,9.60
2014,04,13,11,18,9.60
2014,04,13,11,19,9.60
2014,04,13,11,20,9.60
2014,04,13,11,21,11.30
2014,04,13,11,22,16.10
2014,04,13,11,23,16.10
2014,04,13,11,24,14.50
2014,04,13,11,25,14.50
2014,04,13,11,26,8.10
2014,04,13,11,27,16.10
2014,04,13,11,28,9.60
2014,04,13,11,29,6.40
2014,04,13,11,30,9.60
2014,04,13,11,31,16.10
2014,04,13,11,32,12.90
2014,04,13,11,33,11.30
2014,04,13,11,34,9.60
2014,04,13,11,35,19.30
2014,04,13,11,36,16.10
2014,04,13,11,37,11.30
2014,04,13,11,38,8.10
2014,04,13,11,39,11.30
2014,04,13,11,40,9.60
2014,04,13,11,41,14.50
2014,04,13,11,42,14.50
2014,04,13,11,43,14.50
2014,04,13,11,44,8.10
2014,04,13,11,45,6.40
2014,04,13,11,46,4.80
2014,04,13,11,47,9.60
2014,04,13,11,48,3.20
2014,04,13,11,49,9.60
2014,04,13,11,50,17.70
2014,04,13,11,51,9.60
2014,04,13,11,52,6.40
2014,04,13,11,53,6.40
2014,04,13,11,54,17.70
2014,04,13,11,55,17.70
2014,04,13,11,56,8.10
2014,04,13,11,57,11.30
2014,04,13,11,58,8.10
2014,04,13,11,59,11.30
2014,04,13,12,00,11.30
2014,04,13,12,01,14.50
2014,04,13,12,02,12.90
2014,04,13,12,03,8.10
2014,04,13,12,04,6.40
2014,04,13,12,05,4.80
2014,04,13,12,06,6.40
2014,04,13,12,07,12.90
2014,04,13,12,08,16.10
2014,04,13,12,09,16.10
2014,04,13,12,10,11.30
2014,04,13,12,11,6.40
2014,04,13,12,12,11.30
2014,04,13,12,13,8.10
2014,04,13,12,14,8.10
2014,04,13,12,15,17.70
2014,04,13,12,16,14.50
2014,04,13,12,17,17.70
2014,04,13,12,18,9.60
2014,04,13,12,19,16.10
2014,04,13,12,20,17.70
2014,04,13,12,21,16.10
2014,04,13,12,22,17.70
2014,04,13,12,23,12.90
2014,04,13,12,24,14.50
2014,04,13,12,25,4.80
2014,04,13,12,26,9.60
2014,04,13,12,27,11.30
2014,04,13,12,28,6.40
2014,04,13,12,29,16.10
2014,04,13,12,30,8.10
2014,04,13,12,31,11.30
2014,04,13,12,32,8.10
2014,04,13,12,33,6.40
2014,04,13,12,34,14.50
2014,04,13,12,35,16.10
2014,04,13,12,36,11.30
2014,04,13,12,37,9.60
2014,04,13,12,38,9.60
2014,04,13,12,39,11.30
2014,04,13,12,40,8.10
2014,04,13,12,41,9.60
2014,04,13,12,42,14.50
2014,04,13,12,43,8.10
2014,04,13,12,44,6.40
2014,04,13,12,45,6.40
2014,04,13,12,46,8.10
2014,04,13,12,47,8.10
2014,04,13,12,48,11.30
2014,04,13,12,49,14.50
2014,04,13,12,50,14.50
2014,04,13,12,51,12.90
2014,04,13,12,52,8.10
2014,04,13,12,53,9.60
2014,04,13,12,54,9.60
2014,04,13,12,55,9.60
2014,04,13,12,56,11.30
2014,04,13,12,57,8.10
2014,04,13,12,58,6.40
2014,04,13,12,59,9.60
2014,04,13,13,00,8.10
2014,04,13,13,01,14.50
2014,04,13,13,02,9.60
2014,04,13,13,03,12.90
2014,04,13,13,04,6.40
2014,04,13,13,05,8.10
2014,04,13,13,06,3.20
2014,04,13,13,07,9.60
2014,04,13,13,08,6.40
2014,04,13,13,09,9.60
2014,04,13,13,10,9.60
2014,04,13,13,11,6.40
2014,04,13,13,12,4.80
2014,04,13,13,13,3.20
2014,04,13,13,14,9.60
2014,04,13,13,15,9.60
2014,04,13,13,16,6.40
2014,04,13,13,17,6.40
2014,04,13,13,18,11.30
2014,04,13,13,19,11.30
2014,04,13,13,20,6.40
2014,04,13,13,21,3.20
2014,04,13,13,22,4.80
2014,04,13,13,23,19.30
2014,04,13,13,24,9.60
2014,04,13,13,25,8.10
2014,04,13,13,26,9.60
2014,04,13,13,27,4.80
2014,04,13,13,28,4.80
2014,04,13,13,29,8.10
2014,04,13,13,30,9.60
2014,04,13,13,31,6.40
2014,04,13,13,32,6.40
2014,04,13,13,33,11.30
2014,04,13,13,34,9.60
2014,04,13,13,35,8.10
2014,04,13,13,36,8.10
2014,04,13,13,37,9.60
2014,04,13,13,38,8.10
2014,04,13,13,39,4.80
2014,04,13,13,40,8.10
2014,04,13,13,41,6.40
2014,04,13,13,42,4.80
2014,04,13,13,43,9.60
2014,04,13,13,44,9.60
2014,04,13,13,45,8.10
2014,04,13,13,46,4.80
2014,04,13,13,47,14.50
2014,04,13,13,48,8.10
2014,04,13,13,49,6.40
2014,04,13,13,50,4.80
2014,04,13,13,51,8.10
2014,04,13,13,52,6.40
2014,04,13,13,53,1.60
2014,04,13,13,54,4.80
2014,04,13,13,55,4.80
2014,04,13,13,56,12.90
2014,04,13,13,57,8.10
2014,04,13,13,58,6.40
2014,04,13,13,59,6.40
2014,04,13,14,00,9.60
2014,04,13,14,01,9.60
2014,04,13,14,02,11.30
2014,04,13,14,03,12.90
2014,04,13,14,04,17.70
2014,04,13,14,05,16.10
2014,04,13,14,06,16.10
2014,04,13,14,07,16.10
2014,04,13,14,08,19.30
2014,04,13,14,09,11.30
2014,04,13,14,10,11.30
2014,04,13,14,11,12.90
2014,04,13,14,12,9.60
2014,04,13,14,13,14.50
2014,04,13,14,14,8.10
2014,04,13,14,15,8.10
2014,04,13,14,16,11.30
2014,04,13,14,17,9.60
2014,04,13,14,18,16.10
2014,04,13,14,19,16.10
2014,04,13,14,20,6.40
2014,04,13,14,21,8.10
2014,04,13,14,22,19.30
2014,04,13,14,23,16.10
2014,04,13,14,24,11.30
2014,04,13,14,25,6.40
2014,04,13,14,26,9.60
2014,04,13,14,27,9.60
2014,04,13,14,28,8.10
2014,04,13,14,29,8.10
2014,04,13,14,30,8.10
2014,04,13,14,31,1.60
2014,04,13,14,32,9.60
2014,04,13,14,33,11.30
2014,04,13,14,34,14.50
2014,04,13,14,35,8.10
2014,04,13,14,36,12.90
2014,04,13,14,37,19.30
2014,04,13,14,38,9.60
2014,04,13,14,39,9.60
2014,04,13,14,40,14.50
2014,04,13,14,41,9.60
2014,04,13,14,42,11.30
2014,04,13,14,43,8.10
2014,04,13,14,44,17.70
2014,04,13,14,45,16.10
2014,04,13,14,46,14.50
2014,04,13,14,47,16.10
2014,04,13,14,48,11.30
2014,04,13,14,49,11.30
2014,04,13,14,50,9.60
2014,04,13,14,51,11.30
2014,04,13,14,52,19.30
2014,04,13,14,53,12.90
2014,04,13,14,54,8.10
2014,04,13,14,55,11.30
2014,04,13,14,56,14.50
2014,04,13,14,57,9.60
2014,04,13,14,58,8.10
2014,04,13,14,59,9.60
2014,04,13,15,00,8.10
2014,04,13,15,01,6.40
2014,04,13,15,02,6.40
2014,04,13,15,03,8.10
2014,04,13,15,04,6.40
2014,04,13,15,05,11.30
2014,04,13,15,06,4.80
2014,04,13,15,07,12.90
2014,04,13,15,08,11.30
2014,04,13,15,09,14.50
2014,04,13,15,10,12.90
2014,04,13,15,11,8.10
2014,04,13,15,12,16.10
2014,04,13,15,13,11.30
2014,04,13,15,14,11.30
2014,04,13,15,15,12.90
2014,04,13,15,16,8.10
2014,04,13,15,17,16.10
2014,04,13,15,18,17.70
2014,04,13,15,19,11.30
2014,04,13,15,20,4.80
2014,04,13,15,21,9.60
2014,04,13,15,22,6.40
2014,04,13,15,23,11.30
2014,04,13,15,24,11.30
2014,04,13,15,25,6.40
2014,04,13,15,26,4.80
2014,04,13,15,27,9.60
2014,04,13,15,28,16.10
2014,04,13,15,29,9.60
2014,04,13,15,30,8.10
2014,04,13,15,31,14.50
2014,04,13,15,32,11.30
2014,04,13,15,33,9.60
2014,04,13,15,34,11.30
2014,04,13,15,35,11.30
2014,04,13,15,36,11.30
2014,04,13,15,37,11.30
2014,04,13,15,38,6.40
2014,04,13,15,39,16.10
2014,04,13,15,40,16.10
2014,04,13,15,41,16.10
2014,04,13,15,42,9.60
2014,04,13,15,43,11.30
2014,04,13,15,44,14.50
2014,04,13,15,45,14.50
2014,04,13,15,46,16.10
2014,04,13,15,47,16.10
2014,04,13,15,48,12.90
2014,04,13,15,49,16.10
2014,04,13,15,50,16.10
2014,04,13,15,51,14.50
2014,04,13,15,52,6.40
2014,04,13,15,53,9.60
2014,04,13,15,54,8.10
2014,04,13,15,55,8.10
2014,04,13,15,56,6.40
2014,04,13,15,57,8.10
2014,04,13,15,58,6.40
2014,04,13,15,59,8.10
2014,04,13,16,00,9.60
2014,04,13,16,01,14.50
2014,04,13,16,02,6.40
2014,04,13,16,03,6.40
2014,04,13,16,04,9.60
2014,04,13,16,05,9.60
2014,04,13,16,06,8.10
2014,04,13,16,07,11.30
2014,04,13,16,08,11.30
2014,04,13,16,09,9.60
2014,04,13,16,10,8.10
2014,04,13,16,11,12.90
2014,04,13,16,12,11.30
2014,04,13,16,13,8.10
2014,04,13,16,14,11.30
2014,04,13,16,15,8.10
2014,04,13,16,16,11.30
2014,04,13,16,17,9.60
2014,04,13,16,18,11.30
2014,04,13,16,19,8.10
2014,04,13,16,20,6.40
2014,04,13,16,21,3.20
2014,04,13,16,22,3.20
2014,04,13,16,23,6.40
2014,04,13,16,24,11.30
2014,04,13,16,25,11.30
2014,04,13,16,26,9.60
2014,04,13,16,27,6.40
2014,04,13,16,28,8.10
2014,04,13,16,29,11.30
2014,04,13,16,30,6.40
2014,04,13,16,31,8.10
2014,04,13,16,32,8.10
2014,04,13,16,33,1.60
2014,04,13,16,34,8.10
2014,04,13,16,35,8.10
2014,04,13,16,36,3.20
2014,04,13,16,37,6.40
2014,04,13,16,38,4.80
2014,04,13,16,39,6.40
2014,04,13,16,40,8.10
2014,04,13,16,41,8.10
2014,04,13,16,42,4.80
2014,04,13,16,43,4.80
2014,04,13,16,44,6.40
2014,04,13,16,45,11.30
2014,04,13,16,46,16.10
2014,04,13,16,47,17.70
2014,04,13,16,48,6.40
2014,04,13,16,49,14.50
2014,04,13,16,50,11.30
2014,04,13,16,51,8.10
2014,04,13,16,52,8.10
2014,04,13,16,53,16.10
2014,04,13,16,54,11.30
2014,04,13,16,55,9.60
2014,04,13,16,56,9.60
2014,04,13,16,57,6.40
2014,04,13,16,58,3.20
2014,04,13,16,59,4.80
2014,04,13,17,00,11.30
2014,04,13,17,01,6.40
2014,04,13,17,02,6.40
2014,04,13,17,03,8.10
2014,04,13,17,04,16.10
2014,04,13,17,05,14.50
2014,04,13,17,06,11.30
2014,04,13,17,07,8.10
2014,04,13,17,08,9.60
2014,04,13,17,09,8.10
2014,04,13,17,10,8.10
2014,04,13,17,11,11.30
2014,04,13,17,12,6.40
2014,04,13,17,13,8.10
2014,04,13,17,14,6.40
2014,04,13,17,15,3.20
2014,04,13,17,16,8.10
2014,04,13,17,17,9.60
2014,04,13,17,18,6.40
2014,04,13,17,19,4.80
2014,04,13,17,20,4.80
2014,04,13,17,21,1.60
2014,04,13,17,22,4.80
2014,04,13,17,23,12.90
2014,04,13,17,24,11.30
2014,04,13,17,25,8.10
2014,04,13,17,26,6.40
2014,04,13,17,27,9.60
2014,04,13,17,28,11.30
2014,04,13,17,29,9.60
2014,04,13,17,30,8.10
2014,04,13,17,31,8.10
2014,04,13,17,32,4.80
2014,04,13,17,33,3.20
2014,04,13,17,34,4.80
2014,04,13,17,35,8.10
2014,04,13,17,36,6.40
2014,04,13,17,37,6.40
2014,04,13,17,38,8.10
2014,04,13,17,39,8.10
2014,04,13,17,40,3.20
2014,04,13,17,41,6.40
2014,04,13,17,42,6.40
2014,04,13,17,43,6.40
2014,04,13,17,44,6.40
2014,04,13,17,45,6.40
2014,04,13,17,46,1.60
2014,04,13,17,47,6.40
2014,04,13,17,48,8.10
2014,04,13,17,49,8.10
2014,04,13,17,50,4.80
2014,04,13,17,51,3.20
2014,04,13,17,52,6.40
2014,04,13,17,53,8.10
2014,04,13,17,54,8.10
2014,04,13,17,55,4.80
2014,04,13,17,56,6.40
2014,04,13,17,57,4.80
2014,04,13,17,58,3.20
2014,04,13,17,59,3.20
2014,04,13,18,00,4.80
2014,04,13,18,01,4.80
2014,04,13,18,02,1.60
2014,04,13,18,03,4.80
2014,04,13,18,04,1.60
2014,04,13,18,05,4.80
2014,04,13,18,06,1.60
2014,04,13,18,07,4.80
2014,04,13,18,08,1.60
2014,04,13,18,09,8.10
2014,04,13,18,10,6.40
2014,04,13,18,11,8.10
2014,04,13,18,12,4.80
2014,04,13,18,13,6.40
2014,04,13,18,14,8.10
2014,04,13,18,15,8.10
2014,04,13,18,16,3.20
2014,04,13,18,17,4.80
2014,04,13,18,18,8.10
2014,04,13,18,19,9.60
2014,04,13,18,20,6.40
2014,04,13,18,21,3.20
2014,04,13,18,22,1.60
2014,04,13,18,23,1.60
2014,04,13,18,24,1.60
2014,04,13,18,25,1.60
2014,04,13,18,26,1.60
2014,04,13,18,27,6.40
2014,04,13,18,28,4.80
2014,04,13,18,29,3.20
2014,04,13,18,30,3.20
2014,04,13,18,31,4.80
2014,04,13,18,32,8.10
2014,04,13,18,33,8.10
2014,04,13,18,34,4.80
2014,04,13,18,35,3.20
2014,04,13,18,36,3.20
2014,04,13,18,37,4.80
2014,04,13,18,38,6.40
2014,04,13,18,39,4.80
2014,04,13,18,40,6.40
2014,04,13,18,41,8.10
2014,04,13,18,42,1.60
2014,04,13,18,43,3.20
2014,04,13,18,44,1.60
2014,04,13,18,45,1.60
2014,04,13,18,46,4.80
2014,04,13,18,47,4.80
2014,04,13,18,48,3.20
2014,04,13,18,50,3.20
2014,04,13,18,51,6.40
2014,04,13,18,52,4.80
2014,04,13,18,53,4.80
2014,04,13,18,54,3.20
2014,04,13,18,55,1.60
2014,04,13,18,56,1.60
2014,04,13,18,57,4.80
2014,04,13,18,58,4.80
2014,04,13,18,59,3.20
2014,04,13,19,00,1.60
2014,04,13,19,01,3.20
2014,04,13,19,02,4.80
2014,04,13,19,03,4.80
2014,04,13,19,04,6.40
2014,04,13,19,05,3.20
2014,04,13,19,06,4.80
2014,04,13,19,07,3.20
2014,04,13,19,08,1.60
2014,04,13,19,09,1.60
2014,04,13,19,10,3.20
2014,04,13,19,11,1.60
2014,04,13,19,12,1.60
2014,04,13,19,13,3.20
2014,04,13,19,14,3.20
2014,04,13,19,15,4.80
2014,04,13,19,16,4.80
2014,04,13,19,17,3.20
2014,04,13,19,18,3.20
2014,04,13,19,19,1.60
2014,04,13,19,20,3.20
2014,04,13,19,21,1.60
2014,04,13,19,22,1.60
2014,04,13,19,23,1.60
2014,04,13,19,24,1.60
2014,04,13,19,27,1.60
2014,04,13,19,28,1.60
2014,04,13,19,32,1.60
2014,04,13,19,33,1.60
2014,04,13,19,34,1.60
2014,04,13,19,59,1.60
2014,04,13,20,04,1.60
2014,04,13,20,05,1.60
2014,04,13,20,10,1.60
2014,04,13,20,11,1.60
2014,04,13,20,14,1.60
2014,04,13,20,17,1.60
2014,04,13,20,19,1.60
2014,04,13,20,20,1.60
2014,04,13,20,21,1.60
2014,04,13,20,22,3.20
2014,04,13,20,23,1.60
2014,04,13,20,24,1.60
2014,04,13,20,25,1.60
2014,04,13,20,37,1.60
2014,04,13,20,38,1.60
2014,04,13,20,39,1.60
2014,04,13,20,43,1.60
2014,04,13,20,49,1.60
2014,04,13,20,58,1.60
2014,04,13,21,06,1.60
2014,04,13,21,07,1.60
2014,04,13,21,15,1.60
2014,04,13,21,19,1.60
2014,04,13,21,20,1.60
2014,04,13,21,21,1.60
2014,04,13,21,28,1.60
2014,04,13,21,29,3.20
2014,04,13,21,30,3.20
2014,04,13,21,31,1.60
2014,04,13,21,32,1.60
2014,04,13,21,33,1.60
2014,04,13,21,34,1.60
2014,04,13,21,35,1.60
2014,04,13,21,37,1.60
2014,04,13,21,38,1.60
2014,04,13,21,39,1.60
2014,04,13,21,44,1.60
2014,04,13,21,45,1.60
2014,04,13,21,46,1.60
2014,04,13,21,47,1.60
2014,04,13,21,52,1.60
2014,04,13,21,53,1.60
2014,04,13,22,08,1.60
2014,04,13,22,09,1.60
2014,04,13,22,30,1.60
2014,04,13,22,38,1.60
2014,04,13,22,40,1.60
2014,04,13,22,41,1.60
2014,04,13,22,42,1.60
2014,04,13,23,02,1.60
2014,04,13,23,05,1.60
2014,04,13,23,26,1.60
2014,04,13,23,27,1.60
2014,04,13,23,28,1.60
2014,04,13,23,29,1.60
2014,04,13,23,30,3.20
2014,04,13,23,31,3.20
2014,04,13,23,32,4.80
2014,04,13,23,33,3.20
2014,04,13,23,34,1.60
2014,04,13,23,35,1.60
2014,04,13,23,36,4.80
2014,04,13,23,37,6.40
2014,04,13,23,38,3.20
2014,04,13,23,39,3.20
2014,04,13,23,40,3.20
2014,04,13,23,41,1.60
2014,04,13,23,42,1.60
2014,04,13,23,43,1.60
2014,04,13,23,44,1.60
2014,04,13,23,46,1.60
2014,04,13,23,50,1.60
2014,04,13,23,51,1.60
2014,04,13,23,52,1.60
2014,04,13,23,54,3.20
2014,04,13,23,55,4.80
2014,04,13,23,56,1.60
2014,04,13,23,57,1.60
2014,04,13,23,58,1.60
2014,04,13,23,59,1.60
